Le nostre stazioni meteo in Italia

Pubblicità
Il mio iltempo24.it
Vignola, Italia (16137): Temperatura & dewpoint: 01.12.2019 10:00:00 - 07.12.2019 10:00:00 (CET)Vignola, Italia (16137): reduced air pressure: 01.12.2019 10:00:00 - 07.12.2019 10:00:00 (CET)Vignola, Italia (16137): precipitazioni: 01.12.2019 10:00:00 - 07.12.2019 10:00:00 (CET)
Data & Tempo tt [°C] td [°C] ppp [hPa] rr [mm]
07.12.2019 10:00:00 - - - -
07.12.2019 09:00:00 3,5 2,2 1020,4 0,0
07.12.2019 08:00:00 2,0 0,7 1020,3 0,0
07.12.2019 07:00:00 1,9 0,6 1020,0 0,0
07.12.2019 06:00:00 1,7 0,2 1019,8 0,0
07.12.2019 05:00:00 2,7 0,9 1019,6 0,0
07.12.2019 04:00:00 3,3 1,7 1020,3 0,0
07.12.2019 03:00:00 3,6 1,3 1021,1 0,0
07.12.2019 02:00:00 5,3 2,5 1021,1 0,0
07.12.2019 01:00:00 5,1 2,3 1021,5 0,0
07.12.2019 00:00:00 5,2 2,5 1022,0 0,0
06.12.2019 23:00:00 5,4 2,9 1022,1 0,0
06.12.2019 22:00:00 5,5 2,8 1022,4 0,0
06.12.2019 21:00:00 5,4 2,7 1022,6 0,0
06.12.2019 20:00:00 5,5 2,5 1022,7 0,0
06.12.2019 19:00:00 6,1 2,2 1022,9 0,0
06.12.2019 18:00:00 6,0 2,3 1023,2 0,0
06.12.2019 17:00:00 6,3 2,2 1023,2 0,0
06.12.2019 16:00:00 6,9 2,2 1023,5 0,0
06.12.2019 15:00:00 7,6 1,2 1023,7 0,0
06.12.2019 14:00:00 8,6 1,5 1024,2 0,0
06.12.2019 13:00:00 8,0 1,2 1024,9 0,0
06.12.2019 12:00:00 7,5 1,6 1025,8 0,0
06.12.2019 11:00:00 6,8 1,9 1026,5 0,0
06.12.2019 10:00:00 5,4 1,7 1026,9 0,0
06.12.2019 09:00:00 2,2 0,6 1026,8 0,0
06.12.2019 08:00:00 2,0 0,4 1026,6 0,0
06.12.2019 07:00:00 2,5 1,0 1026,7 0,0
06.12.2019 06:00:00 2,3 0,8 1026,6 0,0
06.12.2019 05:00:00 2,1 0,6 1026,5 0,0
06.12.2019 04:00:00 1,4 -0,1 1026,9 0,0
06.12.2019 03:00:00 0,9 -0,6 1027,3 0,0
06.12.2019 02:00:00 0,4 -1,0 1027,4 0,0
06.12.2019 01:00:00 0,3 -1,0 1027,4 0,0
06.12.2019 00:00:00 -0,1 -1,5 1027,7 0,0
05.12.2019 23:00:00 -0,1 -1,5 1027,9 0,0
05.12.2019 22:00:00 0,1 -1,3 1027,8 0,0
05.12.2019 21:00:00 0,4 -1,2 1027,8 0,0
05.12.2019 20:00:00 0,4 -1,4 1027,7 0,0
05.12.2019 19:00:00 1,0 -0,9 1027,6 0,0
05.12.2019 18:00:00 1,5 -0,7 1027,4 0,0
05.12.2019 17:00:00 3,2 -0,4 1027,0 0,0
05.12.2019 16:00:00 6,4 0,1 1026,6 0,0
05.12.2019 15:00:00 7,6 0,1 1026,6 0,0
05.12.2019 14:00:00 6,8 0,0 1026,9 0,0
05.12.2019 13:00:00 6,8 0,2 1027,1 0,0
05.12.2019 12:00:00 5,9 0,2 1027,4 0,0
05.12.2019 11:00:00 5,3 0,3 1027,8 0,0
05.12.2019 10:00:00 3,7 0,2 1027,7 0,0
05.12.2019 09:00:00 3,3 0,2 1026,9 0,0
05.12.2019 08:00:00 2,1 -0,2 1026,4 0,2
05.12.2019 07:00:00 1,7 -0,6 1026,1 0,0
05.12.2019 06:00:00 0,7 -1,2 1025,8 0,0
05.12.2019 05:00:00 0,7 -1,4 1025,5 0,0
05.12.2019 04:00:00 -0,6 -2,2 1025,6 0,0
05.12.2019 03:00:00 -0,1 -1,8 1025,8 0,0
05.12.2019 02:00:00 0,9 -0,7 1025,8 0,0
05.12.2019 01:00:00 0,2 -1,4 1025,8 0,0
05.12.2019 00:00:00 0,5 -1,1 1025,8 0,0
04.12.2019 23:00:00 0,6 -1,0 1025,5 0,0
04.12.2019 22:00:00 0,2 -1,6 1025,3 0,0
04.12.2019 21:00:00 0,6 -1,2 1025,5 0,0
04.12.2019 20:00:00 0,7 -1,2 1025,5 0,0
04.12.2019 19:00:00 1,3 -1,1 1025,1 0,0
04.12.2019 18:00:00 1,6 -0,8 1025,2 0,0
04.12.2019 17:00:00 4,2 -0,4 1025,1 0,0
04.12.2019 16:00:00 6,7 0,2 1024,9 0,0
04.12.2019 15:00:00 7,4 0,1 1024,9 0,0
04.12.2019 14:00:00 6,5 0,4 1025,4 0,0
04.12.2019 13:00:00 7,2 0,6 1026,0 0,0
04.12.2019 12:00:00 6,6 1,1 1026,5 0,0
04.12.2019 11:00:00 5,2 1,5 1027,4 0,0
04.12.2019 10:00:00 4,5 1,2 1027,5 0,2
04.12.2019 09:00:00 2,1 0,8 1027,4 0,0
04.12.2019 08:00:00 -0,9 -2,0 1027,2 0,0
04.12.2019 07:00:00 -1,4 - - 0,0
04.12.2019 06:00:00 -0,4 -1,5 1026,8 0,0
04.12.2019 05:00:00 -1,3 -2,4 1027,0 0,0
04.12.2019 04:00:00 -0,3 -1,4 1027,1 0,0
04.12.2019 03:00:00 -0,5 -1,8 1027,6 0,0
04.12.2019 02:00:00 0,0 -1,3 1027,5 0,0
04.12.2019 01:00:00 -0,2 -1,5 1027,6 0,0
04.12.2019 00:00:00 0,6 -0,9 1028,2 0,0
03.12.2019 23:00:00 0,3 -1,3 1028,0 0,0
03.12.2019 22:00:00 1,9 0,3 1027,7 0,0
03.12.2019 21:00:00 1,9 0,3 1027,3 0,0
03.12.2019 20:00:00 1,7 -0,1 1026,9 0,0
03.12.2019 19:00:00 3,3 1,0 1026,3 0,0
03.12.2019 18:00:00 4,0 1,4 1025,8 0,0
03.12.2019 17:00:00 7,0 2,1 1025,1 0,0
03.12.2019 16:00:00 8,4 2,4 1024,7 0,0
03.12.2019 15:00:00 9,9 3,4 1024,3 0,0
03.12.2019 14:00:00 10,5 3,5 1024,4 0,0
03.12.2019 13:00:00 10,0 3,3 1024,7 0,0
03.12.2019 12:00:00 9,9 4,1 1025,1 0,0
03.12.2019 11:00:00 9,5 4,7 1025,7 0,0
03.12.2019 10:00:00 7,2 4,7 1025,3 0,0
03.12.2019 09:00:00 6,4 5,0 1024,6 0,0
03.12.2019 08:00:00 5,9 4,5 1023,6 0,0
03.12.2019 07:00:00 6,4 5,0 1023,0 0,0
03.12.2019 06:00:00 7,2 5,8 1022,6 0,2
03.12.2019 05:00:00 7,7 6,3 1022,8 0,0
03.12.2019 04:00:00 7,5 6,1 1022,2 0,0
03.12.2019 03:00:00 7,6 6,2 1022,2 0,0
03.12.2019 02:00:00 7,5 6,1 1021,7 0,6
03.12.2019 01:00:00 7,4 6,0 1021,4 0,6
03.12.2019 00:00:00 7,3 5,9 1021,1 1,0
02.12.2019 23:00:00 7,1 5,6 1020,7 0,6
02.12.2019 22:00:00 7,1 5,6 1020,1 0,4
02.12.2019 21:00:00 7,1 5,6 1019,6 0,4
02.12.2019 20:00:00 7,1 5,6 1019,0 1,6
02.12.2019 19:00:00 7,1 5,6 1018,0 2,4
02.12.2019 18:00:00 7,2 5,7 1017,3 0,0
02.12.2019 17:00:00 7,5 5,6 1016,4 0,6
02.12.2019 16:00:00 8,1 5,4 1015,8 0,2
02.12.2019 15:00:00 8,0 4,9 1015,6 0,0
02.12.2019 14:00:00 8,0 5,3 1015,8 0,0
02.12.2019 13:00:00 8,1 5,6 1016,2 0,2
02.12.2019 12:00:00 8,0 5,6 1016,1 0,0
02.12.2019 11:00:00 8,0 5,8 1016,4 0,0
02.12.2019 10:00:00 7,2 5,2 1016,8 0,0
02.12.2019 09:00:00 6,9 4,9 1016,3 0,0
02.12.2019 08:00:00 6,8 5,0 1016,1 0,0
02.12.2019 07:00:00 6,6 4,9 1015,8 0,8
02.12.2019 06:00:00 6,6 4,8 1015,8 0,0
02.12.2019 05:00:00 6,5 4,8 1016,1 0,2
02.12.2019 04:00:00 6,5 4,8 1016,3 0,8
02.12.2019 03:00:00 6,6 5,1 1016,6 0,0
02.12.2019 02:00:00 6,5 5,1 1016,8 0,4
02.12.2019 01:00:00 6,4 5,0 1017,1 0,2
02.12.2019 00:00:00 6,3 4,9 1017,4 0,0
01.12.2019 23:00:00 6,7 5,3 1017,6 0,0
01.12.2019 22:00:00 7,1 5,7 1017,5 0,0
01.12.2019 21:00:00 7,0 5,6 1017,5 0,0
01.12.2019 20:00:00 7,0 5,5 1017,5 0,0
01.12.2019 19:00:00 6,9 5,4 1018,1 0,2
01.12.2019 18:00:00 6,9 5,2 1018,2 0,2
01.12.2019 17:00:00 7,0 5,1 1018,3 0,0
01.12.2019 16:00:00 7,0 5,0 1018,7 0,0
01.12.2019 15:00:00 7,0 5,0 1019,0 0,0
01.12.2019 14:00:00 7,0 5,0 1019,3 0,0
01.12.2019 13:00:00 7,1 4,7 1019,7 0,0
01.12.2019 12:00:00 7,0 4,8 1020,5 0,0
01.12.2019 11:00:00 6,6 4,8 1021,1 0,0
01.12.2019 10:00:00 6,3 4,6 1021,2 0,0

tt = Temperatura
td = dewpoint
ppp = reduced air pressure
rr = precipitazioni

Stazioni seguenti

WeatherPro
AMSI
MeteoEarth